Dillon, MT

9:11 AM MDT on August 29, 2016 (GMT -0600)
Dillon

Weather History for KDLN - October, 2012

Change the Weather History Date:

Tuesday, October 9, 2012

  Actual Average Record
Temperature  
Mean Temperature 43 °F 46 °F  
Max Temperature 59 °F 60 °F 82 °F (1953)
Min Temperature 27 °F 32 °F -2 °F (1985)
Degree Days  
Heating Degree Days 22    
Month to date heating degree days 203  
Since 1 July heating degree days 383  
Cooling Degree Days 0    
Month to date cooling degree days 0  
Year to date cooling degree days 242  
Moisture  
Dew Point 27 °F    
Average Humidity 54    
Maximum Humidity 78    
Minimum Humidity 30    
Precipitation  
Precipitation 0.00 in 0.03 in 0.14 in (2001)
Month to date precipitation 0.00 0.26  
Year to date precipitation 5.17 9.43  
Snow  
Snow 0.00 in - - ()
Snow Depth 0.00 in    
Sea Level Pressure  
Sea Level Pressure 30.05 in    
Wind  
Wind Speed 6 mph (East)    
Max Wind Speed 18 mph    
Max Gust Speed 22 mph    
Visibility 10 miles    
Events      
T = Trace of Precipitation, MM = Missing Value Source: NWS Daily Summary

Daily Weather History Graph

Daily Weather History Graph

Search for Another Location

Airport or City:

Trip Planner

Search our weather history database for the weather conditions in past years. The results will help you decide how hot, cold, wet, or windy it might be!

Date:

Astronomy

Oct. 09, 2012 Rise Set
Actual Time 7:39 AM MDT 6:54 PM MDT
Civil Twilight 7:09 AM MDT 7:24 PM MDT
Nautical Twilight 6:35 AM MDT 7:58 PM MDT
Astronomical Twilight 6:01 AM MDT 8:32 PM MDT
Moon 1:03 AM MDT (10/9) 3:39 PM MDT (10/9)
Length of Visible Light 12h 14m
Length of Day
11h 15m
Last Quarter, 36% of the Moon is Illuminated
Oct 9
Last Quarter
Oct 15
New
Oct 21
First Quarter
Oct 29
Full
Nov 6
Last Quarter

Hourly Weather History & Observations

Time (MDT) Temp. Windchill Dew Point Humidity Pressure Visibility Wind Dir Wind Speed Gust Speed Precip Events Conditions
12:53 AM 42.1 °F 34.5 °F 32.0 °F 67% 29.92 in 10.0 mi ENE 15.0 mph - N/A   Overcast
2:53 AM 37.9 °F 32.1 °F 28.9 °F 70% 29.96 in 10.0 mi ENE 8.1 mph - N/A   Mostly Cloudy
3:53 AM 37.0 °F 30.4 °F 28.9 °F 73% 29.98 in 10.0 mi ENE 9.2 mph - N/A   Mostly Cloudy
4:53 AM 36.0 °F 30.3 °F 28.9 °F 76% 30.00 in 10.0 mi East 6.9 mph - N/A   Mostly Cloudy
5:53 AM 33.1 °F 26.1 °F 27.0 °F 78% 30.04 in 10.0 mi East 8.1 mph - N/A   Partly Cloudy
6:53 AM 30.0 °F 22.4 °F 25.0 °F 82% 30.07 in 10.0 mi East 8.1 mph - N/A   Clear
7:53 AM 28.0 °F 20.8 °F 23.0 °F 81% 30.12 in 10.0 mi ESE 6.9 mph - N/A   Clear
8:53 AM 32.0 °F - 26.1 °F 79% 30.15 in 10.0 mi Calm Calm - N/A   Clear
9:53 AM 39.0 °F 35.7 °F 28.9 °F 67% 30.14 in 10.0 mi SW 4.6 mph - N/A   Clear
10:53 AM 43.0 °F - 28.0 °F 56% 30.13 in 10.0 mi Calm Calm - N/A   Clear
11:53 AM 48.0 °F - 28.9 °F 48% 30.09 in 10.0 mi Calm Calm - N/A   Clear
12:53 PM 51.1 °F - 30.0 °F 44% 30.07 in 10.0 mi NNE 4.6 mph - N/A   Clear
1:53 PM 54.0 °F - 28.9 °F 38% 30.05 in 10.0 mi Variable 3.5 mph - N/A   Clear
2:53 PM 57.0 °F - 28.9 °F 34% 30.02 in 10.0 mi NE 9.2 mph - N/A   Clear
3:53 PM 57.9 °F - 28.0 °F 32% 30.02 in 10.0 mi East 6.9 mph - N/A   Clear
4:53 PM 57.9 °F - 27.0 °F 31% 30.01 in 10.0 mi North 5.8 mph - N/A   Clear
5:53 PM 57.0 °F - 27.0 °F 32% 30.01 in 10.0 mi North 6.9 mph - N/A   Clear
6:53 PM 48.9 °F - 28.9 °F 46% 30.05 in 10.0 mi NE 5.8 mph - N/A   Clear
7:53 PM 45.0 °F 41.8 °F 28.0 °F 52% 30.09 in 10.0 mi East 5.8 mph - N/A   Clear
8:53 PM 37.9 °F 32.7 °F 24.1 °F 57% 30.12 in 10.0 mi East 6.9 mph - N/A   Clear
9:53 PM 41.0 °F 39.0 °F 24.1 °F 51% 30.09 in 10.0 mi South 3.5 mph - N/A   Clear
10:53 PM 41.0 °F 36.4 °F 25.0 °F 53% 30.08 in 10.0 mi SSW 6.9 mph - N/A   Clear
11:53 PM 42.1 °F 37.7 °F 25.0 °F 51% 30.05 in 10.0 mi South 6.9 mph - N/A   Clear